Temperature
19 19 19 19 19 19 19 19 19 19 19 19 19 19 19 19 19 19 18 18 19 19 18 18 18 18 18 18 18 18 17 17 17 17 17 17 17 17 17 17 17 17 17
19 19 19 19 19 19 19 19 19 19 19 19 19 19 19 19 18 18 18 18 18 18 18 18 18 18 18 18 18 18 18 17 17 17 17 17 17 17 17 17 17 17 17
19 19 19 19 19 19 19 19 19 19 19 19 19 19 19 19 19 18 18 18 18 18 18 18 18 18 18 18 18 18 18 18 17 17 17 17 17 17 17 16 16 16 16
19 19 19 19 19 19 19 19 19 19 19 19 19 19 19 19 19 19 19 18 18 18 18 18 18 18 18 18 18 18 18 18 17 17 17 17 17 17 17 16 16 16 16
19 19 19 19 19 19 19 19 19 19 19 19 19 19 19 19 19 19 19 19 18 18 18 18 18 18 18 18 18 18 18 18 18 17 17 17 17 17 17 16 16 16 16
19 19 19 19 19 19 19 19 19 19 19 19 19 20 20 20 19 19 19 19 19 18 18 18 18 18 18 18 18 18 18 18 18 18 17 17 17 17 17 17 17 16 16
19 19 19 19 19 19 19 19 19 19 19 19 19 20 20 20 20 20 19 19 19 19 18 18 18 18 18 18 18 18 18 18 18 18 17 17 17 17 17 17 17 17 16
19 19 19 19 19 19 19 19 19 19 19 19 19 19 19 20 20 20 19 19 19 19 19 18 18 18 18 18 18 18 18 18 17 17 17 17 17 17 17 17 17 17 16
20 19 19 19 19 19 19 19 19 19 19 19 19 19 19 19 19 20 20 19 19 19 19 19 18 18 18 18 18 18 17 18 17 17 17 17 17 17 17 17 17 16 16
19 19 19 19 19 19 19 19 19 19 19 19 19 19 19 19 19 19 19 19 19 19 19 19 18 18 18 18 18 18 17 17 17 17 17 17 17 17 17 16 16 16 16
19 19 19 19 19 19 19 19 19 19 18 18 19 19 19 19 19 19 19 19 19 19 19 19 18 18 18 18 18 18 17 17 17 17 17 17 17 17 16 16 16 16 16
19 19 19 19 19 19 19 19 19 18 18 18 18 19 19 18 19 18 18 18 19 19 19 18 18 18 18 18 17 17 17 17 17 17 17 17 17 16 16 16 16 16 16
19 19 19 19 19 19 19 18 18 18 18 18 18 18 18 18 18 18 18 18 18 18 18 18 18 18 18 17 17 17 17 17 17 16 16 16 16 16 16 16 16 16 16
19 19 19 19 19 19 18 18 18 18 18 18 18 18 18 18 18 18 18 17 17 18 18 18 18 18 17 17 17 17 17 17 16 16 16 16 16 16 16 16 16 16 16
19 19 19 19 19 18 18 18 18 18 18 18 18 18 18 17 17 17 17 17 17 17 17 17 17 17 17 17 17 16 16 16 16 16 16 16 16 16 16 16 16 16 15
19 19 19 18 18 18 18 18 18 17 18 17 17 17 17 17 17 17 17 17 17 16 16 17 17 17 16 16 16 16 16 16 16 16 16 16 15 15 15 15 15 15 15
18 18 18 18 18 18 18 18 18 17 17 17 17 17 17 17 17 17 16 16 16 16 16 16 16 16 16 16 16 16 16 15 15 16 16 15 15 15 15 15 15 15 15
18 18 18 18 18 18 18 17 17 17 17 17 17 17 17 16 16 16 16 16 16 16 16 15 15 15 15 15 15 15 15 15 15 15 15 15 15 15 15 15 15 15 15
18 18 18 18 18 17 17 17 17 17 17 17 16 16 16 16 16 16 16 16 15 15 15 15 15 15 15 15 15 15 15 15 15 15 15 15 15 15 15 15 15 14 14
18 18 17 17 17 17 17 17 17 17 16 16 16 16 16 16 16 16 15 15 15 15 15 15 15 15 15 15 15 14 14 14 14 14 14 14 14 14 14 15 14 14 14
17 17 17 17 17 17 17 16 16 16 16 16 16 16 16 16 16 15 15 15 15 15 15 15 14 14 14 14 14 14 14 14 14 14 14 14 14 14 14 14 14 14 14
17 17 17 17 16 16 16 16 16 16 16 16 16 15 15 15 15 15 15 15 15 14 14 14 14 14 14 14 13 13 13 13 13 14 14 14 14 14 14 14 14 14 14
16 16 16 16 16 16 16 16 16 16 16 16 15 15 15 15 15 15 15 15 14 14 14 14 14 14 13 13 13 13 13 13 13 13 13 13 14 14 13 13 13 13 13
16 16 16 16 16 16 16 16 15 15 15 15 15 15 14 15 15 15 14 14 14 14 14 13 13 13 13 13 13 13 13 13 13 13 13 13 13 13 13 13 13 13 13
16 16 15 15 15 16 16 15 15 15 15 15 15 15 14 14 14 14 14 14 14 14 13 13 13 13 13 13 13 13 12 12 12 13 13 12 12 12 12 12 13 13 13
15 15 15 15 15 15 15 15 15 15 14 14 14 14 14 14 14 14 13 13 13 13 13 13 13 13 13 13 12 12 12 12 12 12 12 12 12 12 11 12 12 12 12
Wind_Speed
1 1 0 1 2 3 2 2 1 2 3 3 3 3 2 2 3 2 4 9 10 10 10 10 10 9 9 9 9 10 11 12 13 13 14 14 14 14 14 13 13 12 12
1 1 1 1 1 1 1 1 1 1 1 1 2 2 3 3 2 2 3 7 10 11 11 10 10 9 9 10 10 11 11 12 12 12 13 13 13 13 14 14 14 13 13
1 1 1 1 1 1 1 1 1 1 2 2 3 4 3 2 2 3 4 4 7 10 11 11 11 10 10 10 11 12 11 11 12 13 13 13 13 14 14 14 14 13 13
1 1 1 1 1 1 1 2 1 1 1 2 3 3 2 2 3 4 4 5 5 6 10 12 12 11 11 11 11 12 11 11 11 12 13 13 13 13 13 14 14 14 13
2 1 0 0 2 1 1 1 1 1 2 2 3 4 3 4 4 4 4 4 5 6 7 10 13 12 11 10 10 10 10 10 11 11 12 12 12 12 13 14 15 15 15
1 1 1 1 2 1 1 1 1 2 2 3 4 3 3 4 4 3 4 3 4 5 5 7 9 9 11 10 9 9 9 9 10 10 11 11 12 13 12 13 15 15 15
1 0 2 1 1 1 1 1 1 3 2 1 2 3 2 3 3 3 3 2 2 3 3 4 5 4 5 9 10 9 8 9 9 10 10 11 11 12 12 12 13 14 15
0 1 1 2 1 1 1 1 2 2 2 1 2 2 2 1 1 2 2 3 2 2 2 3 4 4 4 5 7 9 9 8 8 9 9 10 11 11 11 12 12 14 15
1 1 0 1 2 1 1 1 2 2 3 2 1 1 1 1 2 1 2 2 2 2 2 2 3 4 5 4 5 7 8 8 8 8 8 8 9 10 11 11 12 13 13
1 1 0 1 2 2 1 2 1 2 3 3 2 1 1 1 1 2 2 1 2 2 2 2 1 3 4 4 5 6 8 7 6 7 7 7 8 9 10 11 11 12 13
2 1 1 1 1 1 1 2 2 2 2 3 2 2 2 2 2 2 2 2 2 1 2 2 1 1 3 3 4 6 9 8 6 6 7 7 7 8 8 9 11 12 12
2 1 1 1 1 1 2 1 2 2 2 2 3 3 2 2 2 2 3 3 2 2 1 1 1 1 2 2 3 6 9 9 8 7 6 6 6 7 8 9 10 10 10
1 1 1 1 1 2 2 2 2 2 2 2 3 3 3 3 3 2 3 3 3 2 1 1 1 0 1 2 2 4 7 8 7 7 6 5 4 4 5 6 8 9 9
0 1 1 0 1 2 2 2 2 2 2 3 3 3 3 3 3 3 2 3 4 3 2 2 1 0 0 1 2 4 3 7 7 7 7 6 5 5 5 5 5 6 6
1 1 0 1 1 1 1 2 2 2 2 2 3 2 3 2 3 3 3 2 2 3 3 3 2 1 1 1 3 3 2 5 7 8 9 8 7 7 6 6 6 6 6
1 1 1 1 1 1 2 2 3 2 2 2 2 2 3 3 3 3 2 2 2 2 3 3 3 3 3 2 1 1 2 4 7 9 10 9 8 8 7 7 6 6 5
1 1 1 2 2 2 2 2 3 3 3 2 3 2 2 2 2 3 3 2 2 1 3 3 3 4 4 3 2 2 4 4 4 8 10 9 9 8 8 7 6 6 5
1 2 2 2 2 2 2 3 4 4 3 3 3 2 3 2 2 3 3 3 2 2 2 4 3 3 3 3 2 3 3 4 3 6 8 9 9 9 9 8 7 6 5
2 1 2 2 3 3 3 3 3 3 3 3 3 2 3 2 3 2 3 3 3 3 2 3 4 3 3 3 3 4 4 3 4 3 6 8 8 9 9 9 8 7 6
2 1 2 3 3 2 2 2 3 3 3 3 2 2 3 2 2 3 3 3 3 3 3 3 3 3 2 3 3 3 3 2 3 4 2 3 5 7 8 8 8 7 6
2 1 2 2 2 2 2 3 3 3 3 3 3 3 3 2 1 2 3 2 3 2 3 3 3 3 3 3 3 3 4 3 3 3 2 2 2 3 4 6 7 7 7
2 1 1 2 2 3 3 3 2 4 3 3 3 3 3 2 1 2 2 2 3 3 3 3 3 3 4 4 3 4 4 3 3 2 2 3 2 2 2 3 6 7 7
1 1 2 2 2 3 4 3 4 4 3 3 2 2 4 3 1 1 2 3 4 4 4 4 4 5 4 3 3 4 5 4 5 4 3 4 2 2 2 1 5 7 8
2 2 2 3 2 2 3 3 4 4 4 3 2 2 2 2 2 2 2 2 3 3 4 4 4 4 4 2 2 4 5 5 4 4 2 3 2 2 2 1 3 5 7
2 2 2 2 2 1 2 3 3 4 3 4 3 1 0 1 2 2 2 3 3 4 5 4 4 5 5 5 4 2 4 3 4 3 1 1 2 2 2 2 3 5 7
2 3 1 1 1 1 1 2 3 3 4 4 3 1 0 1 2 1 2 3 4 4 5 5 4 5 5 5 5 4 3 3 3 3 2 1 2 2 3 2 1 2 4
Wind_Direction
125 126 245 266 240 201 191 220 231 220 223 229 235 239 255 251 257 221 187 189 193 199 206 208 213 219 226 229 233 233 233 234 232 228 228 229 229 231 232 232 234 234 233
127 160 200 257 278 223 196 241 259 223 216 220 247 264 251 233 245 239 190 187 196 201 204 210 216 221 229 232 232 233 235 236 233 227 228 229 230 230 233 235 235 233 231
135 226 208 233 273 248 191 180 256 247 231 227 228 242 235 211 224 219 215 197 199 206 206 208 213 218 225 231 235 237 236 236 233 229 230 232 232 231 232 234 233 232 231
186 234 216 227 266 262 236 203 206 261 264 247 237 239 223 203 209 220 219 211 200 200 204 207 211 214 220 227 232 234 234 236 235 233 233 234 235 234 231 232 231 232 232
197 235 258 331 278 271 277 287 73 260 265 261 258 231 221 206 205 220 228 213 196 195 196 203 211 214 218 222 225 227 230 232 233 234 235 236 235 234 232 231 230 231 231
206 270 257 293 297 308 322 346 312 268 255 260 277 271 232 207 199 206 224 221 198 195 195 195 199 211 214 213 216 219 224 228 230 234 237 240 238 237 234 233 232 232 232
143 209 302 291 275 285 308 318 312 292 277 269 292 298 257 219 201 188 203 209 184 183 185 177 169 182 189 210 216 217 224 227 230 235 238 240 240 239 237 237 234 233 234
294 201 241 283 291 290 309 297 297 295 298 305 302 308 305 293 290 218 183 197 189 189 191 163 161 174 189 183 198 213 221 224 228 235 240 241 241 242 241 241 237 236 235
170 302 130 313 310 283 284 286 298 297 297 300 329 339 316 317 315 275 232 200 172 182 193 180 186 181 187 176 185 202 209 216 223 230 235 240 243 245 245 244 243 241 239
163 222 189 302 305 319 316 293 329 301 289 291 292 252 249 294 289 300 293 273 216 201 208 236 207 185 181 175 176 171 187 203 217 224 229 236 244 245 248 249 248 247 244
184 233 184 232 270 290 302 328 323 306 298 303 302 302 303 279 263 270 294 293 286 241 213 209 211 189 196 182 180 176 176 191 208 219 228 234 240 244 249 251 250 251 252
174 193 192 216 254 280 291 297 295 292 309 320 313 303 297 298 297 281 283 290 287 276 251 227 224 223 188 170 183 176 179 189 201 216 227 237 244 248 254 256 256 256 258
154 188 197 182 256 275 278 288 283 302 306 304 297 298 305 309 307 300 292 295 299 297 288 247 212 337 258 140 152 169 184 190 197 213 223 231 245 256 266 270 264 260 262
358 109 120 204 263 283 299 301 290 291 294 291 295 307 296 304 310 304 296 303 306 304 307 303 302 34 45 115 136 166 185 189 199 213 217 223 230 238 251 264 272 267 269
351 64 181 225 252 274 314 320 312 314 318 303 304 310 309 307 304 298 292 288 282 297 306 317 314 314 54 91 129 170 210 210 215 219 216 217 222 229 239 248 252 258 266
330 351 337 323 318 319 324 305 298 300 297 300 293 305 304 310 309 307 305 296 286 280 290 312 314 332 333 313 143 189 261 233 223 217 213 214 223 228 233 238 241 245 251
296 304 303 305 301 294 287 279 289 297 289 288 297 300 300 321 330 318 314 312 303 283 275 291 308 319 316 313 310 269 267 244 233 223 218 217 220 224 228 232 235 236 241
258 266 260 271 278 283 285 284 286 292 296 295 295 308 311 314 317 308 320 311 311 283 261 278 288 288 292 295 287 277 289 278 256 228 216 218 217 222 228 230 231 232 230
257 269 272 273 280 285 281 286 292 295 302 297 295 299 298 304 301 305 308 304 297 299 279 268 276 282 288 300 304 297 294 287 289 262 222 221 222 226 228 226 224 222 226
263 277 287 280 276 282 288 299 302 293 297 293 288 280 279 280 288 297 293 294 298 305 298 286 279 287 297 305 307 305 306 306 299 295 286 239 231 230 228 222 215 212 214
272 289 291 298 294 285 311 320 302 288 290 290 287 278 274 271 285 288 304 315 311 305 299 297 295 305 312 319 317 309 302 299 299 303 309 275 237 226 222 215 208 206 208
275 285 286 298 303 307 343 348 327 301 290 285 292 293 278 272 259 261 285 289 283 276 285 288 293 296 303 306 317 312 313 310 299 302 310 295 289 269 229 191 187 193 204
264 264 279 279 295 329 1 357 329 305 296 289 289 295 297 310 16 305 272 274 276 283 277 266 273 280 286 300 306 306 302 298 287 283 290 284 290 305 298 231 186 196 206
261 266 268 275 280 327 356 340 319 286 286 284 274 265 287 338 319 318 287 287 280 283 269 263 270 281 290 300 294 290 288 286 278 270 271 279 284 299 300 241 221 213 214
262 272 280 283 294 326 345 329 313 289 290 287 275 267 285 293 333 339 294 285 284 285 278 286 279 265 269 272 273 293 295 293 293 295 302 285 304 318 297 274 250 227 222
268 271 266 274 273 303 310 329 317 297 296 293 277 242 226 285 275 255 264 277 286 295 305 298 287 273 261 257 245 234 262 286 298 299 337 342 312 322 303 287 290 258 230
Height
1525 1525 1526 1526 1526 1527 1527 1527 1527 1526 1526 1527 1527 1527 1528 1528 1529 1528 1527 1527 1527 1527 1527 1526 1526 1527 1527 1528 1528 1528 1528 1529 1529 1530 1531 1532 1533 1534 1535 1536 1537 1538 1539
1525 1525 1526 1526 1526 1526 1526 1526 1526 1526 1526 1525 1525 1526 1526 1527 1527 1527 1527 1526 1526 1526 1525 1525 1525 1525 1526 1526 1526 1526 1526 1526 1526 1527 1528 1530 1530 1531 1532 1533 1534 1535 1536
1525 1525 1525 1526 1526 1526 1526 1526 1525 1525 1525 1525 1524 1525 1525 1525 1525 1525 1525 1525 1524 1524 1524 1524 1524 1524 1524 1523 1523 1523 1523 1523 1524 1525 1525 1526 1527 1528 1529 1530 1531 1532 1533
1525 1525 1525 1525 1525 1526 1526 1525 1524 1524 1524 1524 1523 1523 1524 1524 1524 1524 1524 1523 1523 1522 1522 1522 1522 1522 1522 1521 1520 1520 1521 1521 1521 1522 1523 1523 1524 1525 1526 1527 1528 1529 1529
1524 1524 1525 1525 1525 1525 1525 1525 1524 1523 1523 1523 1522 1522 1523 1522 1523 1523 1522 1522 1522 1521 1521 1520 1520 1520 1520 1519 1519 1518 1519 1519 1519 1520 1520 1521 1521 1522 1523 1524 1524 1525 1526
1524 1524 1524 1524 1524 1524 1524 1524 1523 1523 1523 1522 1522 1522 1521 1521 1521 1521 1521 1521 1521 1520 1520 1519 1518 1518 1518 1517 1517 1517 1517 1517 1517 1517 1517 1517 1518 1519 1519 1520 1521 1522 1523
1524 1523 1523 1523 1523 1523 1523 1523 1523 1522 1522 1522 1521 1521 1521 1520 1520 1520 1519 1519 1519 1519 1519 1518 1517 1517 1516 1516 1515 1515 1515 1514 1514 1514 1514 1515 1515 1516 1516 1517 1517 1518 1519
1523 1523 1522 1523 1523 1522 1522 1522 1522 1521 1521 1521 1521 1520 1520 1520 1519 1519 1518 1518 1518 1518 1517 1517 1516 1515 1515 1514 1513 1513 1512 1512 1512 1512 1512 1512 1512 1512 1513 1513 1514 1514 1515
1522 1522 1522 1522 1522 1521 1521 1521 1520 1520 1520 1520 1520 1520 1520 1519 1518 1518 1517 1517 1516 1516 1516 1515 1514 1513 1513 1512 1511 1511 1510 1510 1509 1509 1509 1509 1509 1509 1510 1510 1510 1511 1511
1522 1521 1521 1521 1521 1521 1520 1520 1519 1519 1519 1519 1519 1519 1519 1518 1518 1517 1516 1515 1515 1514 1514 1513 1513 1512 1511 1510 1509 1508 1508 1508 1507 1507 1506 1506 1506 1506 1506 1507 1507 1507 1507
1521 1520 1520 1519 1519 1519 1519 1518 1518 1518 1517 1517 1517 1517 1517 1517 1516 1516 1514 1514 1513 1512 1512 1511 1511 1510 1509 1508 1507 1506 1506 1505 1505 1504 1504 1503 1503 1503 1503 1503 1503 1503 1504
1519 1519 1519 1518 1518 1517 1517 1517 1516 1516 1516 1515 1515 1515 1515 1515 1514 1514 1513 1512 1511 1510 1510 1509 1509 1508 1507 1506 1505 1504 1504 1503 1502 1502 1501 1501 1501 1500 1500 1500 1500 1500 1500
1518 1517 1517 1516 1516 1516 1515 1515 1515 1514 1514 1514 1513 1513 1513 1512 1512 1511 1511 1510 1509 1508 1508 1507 1506 1506 1505 1504 1503 1502 1502 1501 1500 1500 1499 1498 1498 1497 1497 1497 1496 1496 1496
1517 1516 1516 1515 1514 1514 1513 1513 1513 1512 1512 1512 1511 1511 1510 1509 1509 1509 1509 1508 1507 1506 1506 1505 1504 1504 1503 1502 1501 1500 1499 1499 1498 1497 1496 1495 1495 1494 1494 1493 1492 1492 1492
1516 1515 1514 1514 1513 1512 1511 1511 1511 1510 1510 1509 1509 1508 1507 1507 1507 1506 1506 1506 1506 1504 1503 1503 1502 1502 1501 1499 1498 1497 1497 1496 1495 1494 1493 1492 1492 1491 1490 1490 1489 1489 1488
1513 1513 1512 1512 1511 1510 1510 1509 1509 1509 1508 1507 1507 1506 1505 1504 1504 1504 1503 1503 1503 1502 1501 1501 1500 1499 1498 1497 1496 1494 1493 1493 1492 1491 1490 1489 1489 1488 1487 1487 1486 1485 1485
1511 1511 1510 1510 1509 1509 1508 1507 1507 1506 1505 1504 1504 1504 1503 1502 1501 1501 1501 1501 1500 1500 1499 1498 1498 1496 1495 1494 1492 1491 1490 1489 1488 1488 1487 1486 1486 1485 1484 1484 1483 1483 1482
1509 1509 1508 1507 1507 1506 1506 1505 1504 1504 1503 1502 1502 1501 1501 1500 1499 1499 1498 1498 1498 1497 1496 1495 1494 1493 1492 1491 1489 1488 1487 1486 1486 1485 1485 1484 1483 1482 1481 1481 1480 1480 1479
1506 1506 1506 1505 1504 1504 1503 1502 1501 1501 1500 1500 1499 1499 1498 1498 1497 1496 1496 1495 1495 1495 1493 1492 1491 1491 1490 1489 1487 1486 1485 1484 1483 1483 1482 1481 1480 1479 1478 1478 1477 1477 1477
1504 1503 1503 1502 1502 1501 1500 1500 1499 1498 1497 1497 1496 1496 1495 1495 1494 1494 1493 1492 1492 1491 1491 1490 1489 1488 1487 1486 1485 1483 1482 1481 1481 1480 1479 1478 1477 1476 1475 1475 1474 1474 1474
1502 1501 1501 1500 1499 1499 1498 1497 1496 1495 1494 1494 1493 1493 1493 1492 1492 1491 1490 1489 1489 1488 1487 1487 1486 1485 1484 1483 1482 1481 1480 1479 1478 1477 1476 1475 1474 1473 1472 1472 1471 1471 1471
1499 1498 1498 1497 1496 1496 1495 1494 1493 1492 1491 1490 1490 1490 1489 1489 1488 1488 1487 1486 1486 1485 1485 1484 1484 1483 1481 1481 1479 1478 1477 1476 1474 1474 1473 1472 1471 1470 1470 1469 1468 1468 1468
1496 1495 1495 1494 1493 1492 1492 1491 1490 1489 1488 1487 1487 1486 1486 1486 1485 1484 1484 1483 1482 1482 1482 1482 1480 1479 1479 1478 1477 1475 1474 1474 1472 1471 1470 1469 1468 1467 1467 1467 1466 1466 1465
1494 1493 1493 1492 1491 1490 1489 1488 1487 1486 1485 1484 1483 1483 1483 1482 1481 1481 1480 1479 1478 1478 1479 1478 1477 1476 1476 1475 1474 1473 1472 1470 1469 1468 1468 1466 1466 1465 1464 1464 1464 1463 1463
1492 1491 1490 1489 1488 1487 1486 1484 1484 1483 1482 1481 1481 1480 1480 1479 1478 1478 1477 1476 1475 1475 1476 1475 1474 1473 1472 1472 1471 1470 1469 1468 1466 1465 1465 1464 1463 1462 1461 1461 1461 1461 1460
1489 1488 1487 1486 1485 1484 1483 1482 1482 1480 1479 1479 1478 1477 1477 1476 1475 1475 1474 1473 1472 1472 1472 1471 1471 1470 1469 1468 1468 1467 1466 1465 1464 1463 1462 1461 1460 1459 1458 1458 1458 1457 1457